Flag for Dominican Republic Weather past 2 weeks in Santiago de los Caballeros, Dominican Republic

Now
73 °F

Passing clouds.


Feels Like: 70 °F
Forecast: 72 / 90 °F
Wind: No wind

Location: Santiago


UV Index: 3 (Moderate)

Visibility: N/A


Pressure: 29.95 "Hg

Humidity: 94%

Dew point: 72 °F

Location of Santiago de los CaballerosLocation

Historic Weather in Santiago de los Caballeros

°F

Santiago de los Caballeros temperature yesterday

Maximum temperature yesterday: 90 °F (at 3:00 PM)
Minimum temperature yesterday: 73 °F (at 6:00 AM)
Average temperature yesterday: 79 °F

Past Weeks' High & Low Weather Summary

 TemperatureHumidityPressure
High91 °F (Apr 10, 2:00 PM)100% (Apr 11, 6:00 AM)30.12 "Hg (Apr 11, 6:00 AM)
Low68 °F (Apr 13, 4:00 AM)33% (Apr 13, 1:00 PM)29.83 "Hg (Apr 15, 4:00 PM)
Average78 °F76%29.97 "Hg
* Reported Apr 10 4:00 AM — Apr 25 4:00 AM, Santiago de los Caballeros, Weather by CustomWeather, © 2014

Note: Actual official high and low records may vary slightly from our data, if they occured in-between our weather recording intervals... More about our weather records

Advertising

Historic Weather Conditions — Data for Previous 24 hours

 ConditionsComfort  
Time TempWeatherWind HumidityBarometerVisibility
4:00 AM
Apr 25
73 °FPassing clouds.5 mph100%29.95 "HgN/A
3:00 AM73 °FPassing clouds.No wind94%29.95 "HgN/A
2:00 AM73 °FPassing clouds.5 mph100%29.95 "HgN/A
1:00 AM73 °FPassing clouds.5 mph94%30.01 "HgN/A
12:00 AM73 °FPassing clouds.6 mph94%30.01 "HgN/A
11:00 PM
Apr 24
73 °FPassing clouds.6 mph94%30.01 "HgN/A
10:00 PM73 °FRain. Passing clouds.6 mph94%30.04 "Hg5 mi
9:00 PM73 °FRain. Passing clouds.5 mph94%30.01 "Hg3 mi
8:00 PM73 °FThunderstorms. Passing clouds.6 mph94%30.01 "Hg4 mi
7:00 PM75 °FLight rain. Partly sunny.9 mph89%29.95 "Hg5 mi
6:00 PM84 °FPartly sunny.7 mphN/A29.92 "HgN/A
5:00 PM86 °FPartly sunny.9 mph62%29.92 "HgN/A
4:00 PM88 °FScattered clouds.13 mph59%29.92 "HgN/A
3:00 PM90 °FScattered clouds.7 mph55%29.92 "HgN/A
2:00 PM88 °FScattered clouds.13 mph59%29.95 "HgN/A
1:00 PM88 °FScattered clouds.9 mph52%29.98 "HgN/A
12:00 PM88 °FScattered clouds.13 mph55%30.01 "HgN/A
11:00 AM84 °FScattered clouds.9 mph66%30.01 "HgN/A
10:00 AM82 °FScattered clouds.9 mph70%30.01 "HgN/A
9:00 AM81 °FScattered clouds.7 mph79%29.98 "HgN/A
8:00 AM75 °FPartly sunny.No wind94%29.98 "HgN/A
7:00 AM73 °FPartly sunny.No wind100%29.95 "HgN/A
6:00 AM73 °FPartly cloudy.3 mph100%29.95 "HgN/A
5:00 AM75 °FPartly cloudy.3 mph94%29.92 "HgN/A
Weather by CustomWeather, © 2014

See weather overview